THY159 UBBB-LTFJ

Flight info

Callsign THY159
Flight time 2h 46m
Altitude 38000
Route RASA2B RASAM N199 LUSAL N319 ADEKI N644 LAGAS N61 TBN TEMEL ARLAT IPSAT ARSUG ERKOS EMLAD OSDUT TERME CRM HAVZA ORVOR AKEDO ILHAN UT79 UFKAC NAMAN NAMA1G
Aircraft B738/M-SDE2E3FGIJ1RWYZ/LB1D1

Departure

Time 2025-09-05 11:10
Airport Heydar Aliyev International Airport (UBBB)

Arrival

Time 2025-09-05 13:56
Airport Istanbul Sabiha Gökçen International Airport (LTFJ)
Time Latitude Longitude Altitude Speed Heading
2025-09-05 10:40 40.46676 50.05087 14 ft 0 kts 144°
2025-09-05 10:59 40.46702 50.05063 14 ft 3 kts 144°
2025-09-05 10:59 40.46749 50.05018 16 ft 2 kts 144°
2025-09-05 11:00 40.46755 50.05013 14 ft 0 kts 144°
2025-09-05 11:02 40.46746 50.05018 15 ft 2 kts 161°
2025-09-05 11:03 40.46668 50.04983 14 ft 6 kts 206°
2025-09-05 11:03 40.46626 50.04955 14 ft 8 kts 207°
2025-09-05 11:04 40.46500 50.04814 14 ft 10 kts 207°
2025-09-05 11:04 40.46352 50.04711 14 ft 14 kts 209°
2025-09-05 11:05 40.46213 50.04688 14 ft 11 kts 148°
2025-09-05 11:05 40.46069 50.04814 14 ft 11 kts 148°
2025-09-05 11:06 40.45919 50.04781 14 ft 13 kts 202°
2025-09-05 11:06 40.45826 50.04732 14 ft 15 kts 201°
2025-09-05 11:07 40.45674 50.04464 14 ft 15 kts 250°
2025-09-05 11:07 40.45669 50.04121 11 ft 11 kts 345°
2025-09-05 11:08 40.45740 50.04098 12 ft 11 kts 346°
2025-09-05 11:08 40.46492 50.03861 9 ft 119 kts 347°
2025-09-05 11:09 40.48653 50.03211 632 ft 177 kts 349°
2025-09-05 11:09 40.50991 50.02440 1350 ft 177 kts 350°
2025-09-05 11:10 40.53255 50.01733 1231 ft 157 kts 349°
2025-09-05 11:10 40.55743 50.00950 1390 ft 222 kts 348°
2025-09-05 11:11 40.59069 49.99874 2059 ft 256 kts 348°
2025-09-05 11:11 40.60819 49.99227 2658 ft 265 kts 337°
2025-09-05 11:12 40.62493 49.92931 5120 ft 270 kts 262°
2025-09-05 11:12 40.62043 49.88029 6785 ft 271 kts 266°
2025-09-05 11:13 40.61883 49.83050 7867 ft 276 kts 269°
2025-09-05 11:13 40.61857 49.80518 7981 ft 278 kts 269°
2025-09-05 11:14 40.61805 49.72877 8633 ft 280 kts 269°
2025-09-05 11:14 40.61787 49.70357 9468 ft 278 kts 269°
2025-09-05 11:15 40.61725 49.62346 10646 ft 319 kts 269°
2025-09-05 11:15 40.61700 49.59322 10814 ft 339 kts 269°
2025-09-05 11:16 40.61612 49.49386 11598 ft 376 kts 269°
2025-09-05 11:16 40.61547 49.42466 12730 ft 379 kts 269°
2025-09-05 11:17 40.61477 49.35519 13766 ft 383 kts 269°
2025-09-05 11:17 40.61403 49.28442 14661 ft 388 kts 269°
2025-09-05 11:18 40.61323 49.21343 15511 ft 392 kts 269°
2025-09-05 11:18 40.61212 49.14093 16340 ft 397 kts 269°
2025-09-05 11:19 40.61061 49.06810 17141 ft 402 kts 268°
2025-09-05 11:19 40.60982 49.03098 17526 ft 405 kts 268°
2025-09-05 11:20 40.60744 48.91917 18650 ft 411 kts 268°
2025-09-05 11:20 40.60580 48.84366 19355 ft 413 kts 268°
2025-09-05 11:21 40.60411 48.76821 20056 ft 415 kts 268°
2025-09-05 11:21 40.60236 48.69176 20676 ft 419 kts 268°
2025-09-05 11:21 40.60147 48.65386 20979 ft 420 kts 268°
2025-09-05 11:22 40.59962 48.57652 21582 ft 423 kts 268°
2025-09-05 11:22 40.59769 48.49879 22165 ft 426 kts 268°
2025-09-05 11:23 40.59572 48.42120 22798 ft 427 kts 268°
2025-09-05 11:24 40.59265 48.30309 23530 ft 433 kts 268°
2025-09-05 11:24 40.59158 48.26343 23753 ft 434 kts 268°
2025-09-05 11:25 40.58868 48.15734 24291 ft 436 kts 268°
2025-09-05 11:25 40.58725 48.10425 24586 ft 437 kts 268°
2025-09-05 11:26 40.62028 47.88554 25658 ft 451 kts 305°
2025-09-05 11:29 40.79842 47.59363 27523 ft 452 kts 304°
2025-09-05 11:31 40.95275 47.33525 29757 ft 443 kts 303°
2025-09-05 11:33 41.10370 47.08002 31676 ft 437 kts 303°
2025-09-05 11:34 41.23334 46.85910 33241 ft 431 kts 302°
2025-09-05 11:37 41.32635 46.54161 35108 ft 411 kts 277°
2025-09-05 11:38 41.36202 46.28093 36282 ft 407 kts 277°
2025-09-05 11:41 41.40663 45.95069 37908 ft 396 kts 277°
2025-09-05 11:42 41.44054 45.69432 38005 ft 407 kts 277°
2025-09-05 11:45 41.48395 45.35811 37978 ft 408 kts 275°
2025-09-05 11:46 41.50522 45.09671 38011 ft 403 kts 274°
2025-09-05 11:49 41.53163 44.76442 38017 ft 399 kts 274°
2025-09-05 11:50 41.55142 44.50697 38064 ft 400 kts 274°
2025-09-05 11:53 41.56612 44.17244 38111 ft 403 kts 261°
2025-09-05 11:54 41.53691 43.91475 38111 ft 398 kts 261°
2025-09-05 11:57 41.49954 43.58590 38118 ft 402 kts 261°
2025-09-05 11:58 41.46939 43.32670 38115 ft 407 kts 261°
2025-09-05 12:01 41.42982 42.99406 38136 ft 403 kts 261°
2025-09-05 12:02 41.39842 42.73530 38119 ft 404 kts 261°
2025-09-05 12:05 41.35732 42.40340 38082 ft 406 kts 261°
2025-09-05 12:06 41.32450 42.14380 38080 ft 406 kts 261°
2025-09-05 12:09 41.28131 41.81193 38055 ft 407 kts 260°
2025-09-05 12:10 41.24643 41.55167 38034 ft 410 kts 260°
2025-09-05 12:12 41.20750 41.26625 38009 ft 409 kts 259°
2025-09-05 12:14 41.16625 40.96980 37964 ft 407 kts 259°
2025-09-05 12:16 41.12438 40.67461 37971 ft 407 kts 259°
2025-09-05 12:18 41.08167 40.37922 37977 ft 410 kts 259°
2025-09-05 12:20 41.03785 40.08175 37987 ft 413 kts 259°
2025-09-05 12:22 40.99720 39.78254 37994 ft 414 kts 269°
2025-09-05 12:24 41.02523 39.47975 37987 ft 414 kts 275°
2025-09-05 12:26 41.05334 39.17715 37991 ft 414 kts 275°
2025-09-05 12:28 41.08146 38.87316 37976 ft 417 kts 275°
2025-09-05 12:30 41.10829 38.56689 37977 ft 419 kts 275°
2025-09-05 12:32 41.13405 38.25933 37982 ft 420 kts 274°
2025-09-05 12:34 41.15870 37.95153 37983 ft 420 kts 274°
2025-09-05 12:36 41.18481 37.64381 37971 ft 419 kts 275°
2025-09-05 12:38 41.20597 37.33645 37974 ft 418 kts 274°
2025-09-05 12:40 41.22945 37.02918 37971 ft 419 kts 274°
2025-09-05 12:42 41.25317 36.72075 37968 ft 420 kts 274°
2025-09-05 12:44 41.23044 36.41855 37973 ft 418 kts 250°
2025-09-05 12:46 41.14927 36.12923 37983 ft 420 kts 250°
2025-09-05 12:49 41.05633 35.80349 37975 ft 420 kts 249°
2025-09-05 12:50 40.98307 35.55127 37948 ft 419 kts 250°
2025-09-05 12:53 40.89057 35.22707 37971 ft 419 kts 250°
2025-09-05 12:54 40.81822 34.97417 37992 ft 422 kts 250°
2025-09-05 12:56 40.73448 34.68456 37996 ft 424 kts 250°
2025-09-05 12:58 40.65317 34.40643 38007 ft 425 kts 249°
2025-09-05 13:00 40.56765 34.11703 38028 ft 424 kts 249°
2025-09-05 13:02 40.48162 33.82898 38014 ft 424 kts 248°
2025-09-05 13:05 40.48330 33.48879 38022 ft 431 kts 281°
2025-09-05 13:06 40.53287 33.21980 38007 ft 434 kts 280°
2025-09-05 13:09 40.59524 32.87280 38000 ft 433 kts 280°
2025-09-05 13:11 40.64976 32.56378 37986 ft 433 kts 280°
2025-09-05 13:12 40.69673 32.29349 37986 ft 433 kts 279°
2025-09-05 13:15 40.77467 31.95047 38000 ft 436 kts 285°
2025-09-05 13:17 40.85000 31.64594 37865 ft 439 kts 284°
2025-09-05 13:18 40.91509 31.37781 36095 ft 437 kts 283°
2025-09-05 13:21 40.99221 31.02983 34034 ft 449 kts 283°
2025-09-05 13:22 41.04831 30.76215 32226 ft 421 kts 282°
2025-09-05 13:25 41.14445 30.43709 30114 ft 419 kts 289°
2025-09-05 13:26 41.21966 30.18960 27868 ft 407 kts 282°
2025-09-05 13:28 41.23192 29.91945 24941 ft 415 kts 246°
2025-09-05 13:29 41.19958 29.85788 24116 ft 405 kts 223°
2025-09-05 13:29 41.16018 29.80473 23201 ft 406 kts 223°
2025-09-05 13:30 41.12149 29.75108 22314 ft 398 kts 224°
2025-09-05 13:30 41.10238 29.72438 21901 ft 396 kts 223°
2025-09-05 13:30 41.06482 29.67206 21083 ft 391 kts 223°
2025-09-05 13:31 41.02759 29.62031 20282 ft 384 kts 223°
2025-09-05 13:32 40.97282 29.54434 19105 ft 377 kts 222°
2025-09-05 13:32 40.92911 29.51148 18336 ft 360 kts 187°
2025-09-05 13:33 40.87951 29.50986 17537 ft 353 kts 177°
2025-09-05 13:33 40.83076 29.51110 16787 ft 348 kts 177°
2025-09-05 13:34 40.78292 29.51164 16072 ft 343 kts 178°
2025-09-05 13:34 40.75911 29.51179 15718 ft 340 kts 178°
2025-09-05 13:34 40.71195 29.51211 15017 ft 336 kts 179°
2025-09-05 13:35 40.66551 29.51243 14320 ft 333 kts 179°
2025-09-05 13:36 40.59632 29.51290 13233 ft 330 kts 180°
2025-09-05 13:36 40.55118 29.50660 12493 ft 326 kts 202°
2025-09-05 13:37 40.51119 29.48060 11897 ft 320 kts 206°
2025-09-05 13:37 40.47133 29.45455 11220 ft 318 kts 206°
2025-09-05 13:38 40.43211 29.42902 10560 ft 315 kts 211°
2025-09-05 13:38 40.41593 29.40982 10226 ft 314 kts 234°
2025-09-05 13:38 40.40403 29.35629 9953 ft 302 kts 268°
2025-09-05 13:39 40.40388 29.30286 9595 ft 291 kts 268°
2025-09-05 13:40 40.40347 29.22526 9171 ft 275 kts 275°
2025-09-05 13:40 40.41897 29.18018 8837 ft 271 kts 300°
2025-09-05 13:41 40.43860 29.13836 8322 ft 270 kts 300°
2025-09-05 13:41 40.44523 29.09128 8026 ft 268 kts 263°
2025-09-05 13:42 40.44129 29.04405 7924 ft 250 kts 262°
2025-09-05 13:42 40.43949 29.02192 7952 ft 239 kts 263°
2025-09-05 13:42 40.43880 28.97866 7937 ft 240 kts 289°
2025-09-05 13:43 40.46266 28.95161 7951 ft 238 kts 352°
2025-09-05 13:44 40.51336 28.94505 7464 ft 245 kts 354°
2025-09-05 13:44 40.54621 28.93960 7028 ft 233 kts 354°
2025-09-05 13:45 40.57813 28.93395 6632 ft 230 kts 354°
2025-09-05 13:45 40.60980 28.92801 6247 ft 229 kts 354°
2025-09-05 13:46 40.64110 28.92187 5833 ft 227 kts 354°
2025-09-05 13:46 40.65674 28.91864 5633 ft 226 kts 353°
2025-09-05 13:46 40.68710 28.91214 5479 ft 215 kts 354°
2025-09-05 13:47 40.71628 28.91300 5391 ft 216 kts 30°
2025-09-05 13:48 40.75228 28.94959 4519 ft 214 kts 56°
2025-09-05 13:48 40.76733 28.98221 4045 ft 197 kts 62°
2025-09-05 13:48 40.77345 28.99790 3987 ft 187 kts 63°
2025-09-05 13:49 40.78466 29.02820 3980 ft 180 kts 64°
2025-09-05 13:49 40.79493 29.05637 3974 ft 164 kts 63°
2025-09-05 13:50 40.80363 29.08027 3811 ft 186 kts 64°
2025-09-05 13:50 40.81634 29.11515 3296 ft 173 kts 63°
2025-09-05 13:51 40.82474 29.13820 2924 ft 160 kts 63°
2025-09-05 13:52 40.83876 29.17661 2339 ft 160 kts 60°
2025-09-05 13:52 40.84778 29.20133 1949 ft 142 kts 60°
2025-09-05 13:53 40.85643 29.22496 1572 ft 142 kts 62°
2025-09-05 13:53 40.86499 29.24836 1198 ft 140 kts 61°
2025-09-05 13:54 40.87372 29.27217 870 ft 149 kts 62°
2025-09-05 13:54 40.87837 29.28483 677 ft 157 kts 61°
2025-09-05 13:54 40.88760 29.31026 299 ft 139 kts 61°
2025-09-05 13:55 40.89267 29.32317 302 ft 27 kts 45°
2025-09-05 13:56 40.89487 29.32410 308 ft 12 kts 245°
2025-09-05 13:56 40.89419 29.32224 307 ft 11 kts 244°
2025-09-05 13:57 40.89341 29.32009 306 ft 16 kts 244°
2025-09-05 13:57 40.89235 29.31724 307 ft 17 kts 244°
2025-09-05 13:57 40.89185 29.31587 306 ft 15 kts 246°
2025-09-05 13:58 40.89198 29.31421 306 ft 9 kts 349°
2025-09-05 13:58 40.89310 29.31454 306 ft 9 kts 335°
2025-09-05 13:59 40.89434 29.31375 306 ft 10 kts 333°
2025-09-05 14:00 40.89613 29.31261 313 ft 10 kts 334°
2025-09-05 14:00 40.89759 29.31154 316 ft 15 kts 319°
2025-09-05 14:01 40.89935 29.31117 318 ft 13 kts 53°
2025-09-05 14:01 40.90061 29.31283 318 ft 13 kts 35°
2025-09-05 14:02 40.90211 29.31417 320 ft 14 kts 36°
2025-09-05 14:02 40.90278 29.31504 320 ft 13 kts 56°
2025-09-05 14:02 40.90365 29.31737 319 ft 15 kts 64°
2025-09-05 14:03 40.90459 29.31978 319 ft 10 kts 43°
2025-09-05 14:04 40.90636 29.31955 318 ft 7 kts 49°
2025-09-05 14:04 40.90678 29.32073 320 ft 4 kts 96°
2025-09-05 14:04 40.90653 29.32102 320 ft 6 kts 151°
2025-09-05 14:05 40.90613 29.32128 320 ft 0 kts 154°